| time (UTC) | temp C | wind direction | speed KPH | gust KPH | rain 1hr cm | rain 24hr cm | rain mn cm | humidity % | barometer mb |
| 20260504235940 | 25 | 226 | 14.5 | 22.5 | 0.00 | 0.00 | 0.00 | 64 | 1007.8 |
| 20260504235437 | 26 | 184 | 8.0 | 17.7 | 0.00 | 0.00 | 0.00 | 64 | 1007.9 |
| 20260504234933 | 26 | 186 | 17.7 | 29.0 | 0.00 | 0.00 | 0.00 | 64 | 1008.1 |
| 20260504234431 | 26 | 214 | 8.0 | 11.3 | 0.00 | 0.00 | 0.00 | 64 | 1008.2 |
| 20260504233927 | 26 | 234 | 9.7 | 14.5 | 0.00 | 0.00 | 0.00 | 63 | 1008.0 |
| 20260504233423 | 26 | 151 | 11.3 | 16.1 | 0.00 | 0.00 | 0.00 | 63 | 1008.2 |
| 20260504232920 | 26 | 180 | 8.0 | 9.7 | 0.00 | 0.00 | 0.00 | 62 | 1008.1 |
| 20260504232417 | 26 | 175 | 9.7 | 12.9 | 0.00 | 0.00 | 0.00 | 62 | 1008.1 |
| 20260504231914 | 26 | 179 | 8.0 | 12.9 | 0.00 | 0.00 | 0.00 | 62 | 1008.0 |
| 20260504231410 | 26 | 181 | 16.1 | 20.9 | 0.00 | 0.00 | 0.00 | 62 | 1008.4 |
| 20260504230907 | 26 | 154 | 6.4 | 8.0 | 0.00 | 0.00 | 0.00 | 61 | 1008.4 |
| 20260504230404 | 26 | 201 | 14.5 | 20.9 | 0.00 | 0.00 | 0.00 | 60 | 1008.5 |
| 20260504225903 | 27 | 178 | 6.4 | 12.9 | 0.00 | 0.00 | 0.00 | 60 | 1008.4 |
| 20260504225359 | 26 | 183 | 8.0 | 11.3 | 0.00 | 0.00 | 0.00 | 60 | 1008.4 |
| 20260504224856 | 26 | 169 | 4.8 | 9.7 | 0.00 | 0.00 | 0.00 | 60 | 1008.6 |
| 20260504224352 | 27 | 177 | 17.7 | 25.7 | 0.00 | 0.00 | 0.00 | 60 | 1008.6 |
| 20260504223849 | 26 | 166 | 12.9 | 16.1 | 0.00 | 0.00 | 0.00 | 60 | 1008.6 |
| 20260504223345 | 27 | 166 | 14.5 | 17.7 | 0.00 | 0.00 | 0.00 | 60 | 1008.5 |
| 20260504222842 | 26 | 214 | 6.4 | 8.0 | 0.00 | 0.00 | 0.00 | 61 | 1008.4 |
| 20260504222338 | 26 | 209 | 6.4 | 12.9 | 0.00 | 0.00 | 0.00 | 61 | 1008.6 |
| 20260504221837 | 26 | 204 | 16.1 | 20.9 | 0.00 | 0.00 | 0.00 | 60 | 1008.7 |
| 20260504221333 | 26 | 196 | 8.0 | 17.7 | 0.00 | 0.00 | 0.00 | 60 | 1008.7 |
| 20260504220831 | 27 | 197 | 6.4 | 8.0 | 0.00 | 0.00 | 0.00 | 59 | 1008.9 |
| 20260504220327 | 27 | 185 | 14.5 | 25.7 | 0.00 | 0.00 | 0.00 | 58 | 1009.0 |
| 20260504215825 | 27 | 152 | 14.5 | 17.7 | 0.00 | 0.00 | 0.00 | 58 | 1009.1 |
| 20260504215321 | 27 | 162 | 4.8 | 8.0 | 0.00 | 0.00 | 0.00 | 58 | 1008.9 |
| 20260504214817 | 27 | 205 | 16.1 | 24.1 | 0.00 | 0.00 | 0.00 | 58 | 1009.0 |
| 20260504214314 | 27 | 175 | 4.8 | 8.0 | 0.00 | 0.00 | 0.00 | 58 | 1009.2 |
| 20260504213810 | 27 | 222 | 20.9 | 35.4 | 0.00 | 0.00 | 0.00 | 58 | 1009.4 |
| 20260504213306 | 27 | 209 | 9.7 | 17.7 | 0.00 | 0.00 | 0.00 | 57 | 1009.0 |
| 20260504212804 | 27 | 155 | 11.3 | 17.7 | 0.00 | 0.00 | 0.00 | 56 | 1009.2 |
| 20260504212300 | 27 | 142 | 6.4 | 12.9 | 0.00 | 0.00 | 0.00 | 57 | 1009.3 |
| 20260504211758 | 27 | 148 | 19.3 | 25.7 | 0.00 | 0.00 | 0.00 | 57 | 1009.6 |
| 20260504211254 | 27 | 204 | 9.7 | 14.5 | 0.00 | 0.00 | 0.00 | 58 | 1009.6 |
| 20260504210751 | 27 | 179 | 14.5 | 20.9 | 0.00 | 0.00 | 0.00 | 57 | 1009.5 |
| 20260504210248 | 27 | 144 | 9.7 | 12.9 | 0.00 | 0.00 | 0.00 | 57 | 1009.5 |
| 20260504205745 | 27 | 188 | 11.3 | 16.1 | 0.00 | 0.00 | 0.00 | 57 | 1009.9 |
| 20260504205243 | 27 | 186 | 11.3 | 14.5 | 0.00 | 0.00 | 0.00 | 57 | 1009.8 |
| 20260504204741 | 27 | 96 | 8.0 | 12.9 | 0.00 | 0.00 | 0.00 | 57 | 1010.2 |
| 20260504204239 | 27 | 189 | 17.7 | 20.9 | 0.00 | 0.00 | 0.00 | 56 | 1009.9 |
| 20260504203738 | 27 | 158 | 8.0 | 12.9 | 0.00 | 0.00 | 0.00 | 56 | 1010.1 |
| 20260504203235 | 27 | 250 | 6.4 | 9.7 | 0.00 | 0.00 | 0.00 | 56 | 1010.0 |
| 20260504202735 | 27 | 177 | 8.0 | 9.7 | 0.00 | 0.00 | 0.00 | 56 | 1010.4 |
| 20260504202233 | 27 | 174 | 11.3 | 14.5 | 0.00 | 0.00 | 0.00 | 56 | 1010.4 |
| 20260504201730 | 27 | 197 | 16.1 | 22.5 | 0.00 | 0.00 | 0.00 | 54 | 1010.7 |
| 20260504201227 | 27 | 185 | 6.4 | 8.0 | 0.00 | 0.00 | 0.00 | 55 | 1010.6 |
| 20260504200725 | 27 | 194 | 12.9 | 17.7 | 0.00 | 0.00 | 0.00 | 55 | 1011.0 |
| 20260504200220 | 27 | 195 | 3.2 | 3.2 | 0.00 | 0.00 | 0.00 | 54 | 1011.2 |
| 20260504195717 | 26 | 158 | 17.7 | 20.9 | 0.00 | 0.00 | 0.00 | 55 | 1011.1 |
| 20260504195213 | 26 | 209 | 3.2 | 3.2 | 0.00 | 0.00 | 0.00 | 56 | 1011.1 |
| 20260504194710 | 27 | 203 | 11.3 | 14.5 | 0.00 | 0.00 | 0.00 | 54 | 1011.2 |
| 20260504194206 | 27 | 174 | 4.8 | 8.0 | 0.00 | 0.00 | 0.00 | 54 | 1011.3 |
| 20260504193702 | 26 | 180 | 11.3 | 20.9 | 0.00 | 0.00 | 0.00 | 54 | 1011.5 |
| 20260504193200 | 26 | 198 | 11.3 | 17.7 | 0.00 | 0.00 | 0.00 | 54 | 1011.4 |
| 20260504192658 | 26 | 196 | 3.2 | 4.8 | 0.00 | 0.00 | 0.00 | 55 | 1011.5 |
| 20260504192156 | 27 | 246 | 8.0 | 12.9 | 0.00 | 0.00 | 0.00 | 53 | 1011.7 |
| 20260504191654 | 27 | 189 | 1.6 | 3.2 | 0.00 | 0.00 | 0.00 | 54 | 1011.7 |
| 20260504191150 | 27 | 149 | 6.4 | 12.9 | 0.00 | 0.00 | 0.00 | 54 | 1012.0 |
| 20260504190646 | 26 | 221 | 4.8 | 8.0 | 0.00 | 0.00 | 0.00 | 55 | 1011.8 |
| 20260504190143 | 26 | 203 | 9.7 | 12.9 | 0.00 | 0.00 | 0.00 | 54 | 1012.2 |
| 20260504185639 | 26 | 202 | 6.4 | 8.0 | 0.00 | 0.00 | 0.00 | 54 | 1011.9 |
| 20260504185136 | 26 | 214 | 3.2 | 4.8 | 0.00 | 0.00 | 0.00 | 54 | 1011.9 |
| 20260504184632 | 27 | 146 | 8.0 | 9.7 | 0.00 | 0.00 | 0.00 | 53 | 1012.0 |
| 20260504184127 | 26 | 169 | 8.0 | 12.9 | 0.00 | 0.00 | 0.00 | 53 | 1012.1 |
| 20260504183624 | 26 | 181 | 14.5 | 17.7 | 0.00 | 0.00 | 0.00 | 53 | 1012.1 |
| 20260504183122 | 26 | 207 | 16.1 | 20.9 | 0.00 | 0.00 | 0.00 | 53 | 1012.3 |
| 20260504182620 | 26 | 84 | 6.4 | 9.7 | 0.00 | 0.00 | 0.00 | 52 | 1012.3 |
| 20260504182117 | 26 | 200 | 12.9 | 24.1 | 0.00 | 0.00 | 0.00 | 52 | 1012.4 |
| 20260504181614 | 26 | 200 | 4.8 | 9.7 | 0.00 | 0.00 | 0.00 | 50 | 1012.7 |
| 20260504181111 | 26 | 154 | 9.7 | 14.5 | 0.00 | 0.00 | 0.00 | 51 | 1012.4 |
| 20260504180611 | 26 | 131 | 8.0 | 9.7 | 0.00 | 0.00 | 0.00 | 51 | 1012.5 |
| 20260504180109 | 26 | 190 | 9.7 | 14.5 | 0.00 | 0.00 | 0.00 | 50 | 1012.3 |
| 20260504175606 | 26 | 148 | 20.9 | 24.1 | 0.00 | 0.00 | 0.00 | 50 | 1012.6 |
| 20260504175103 | 25 | 146 | 9.7 | 14.5 | 0.00 | 0.00 | 0.00 | 50 | 1012.8 |
| 20260504174601 | 25 | 134 | 6.4 | 14.5 | 0.00 | 0.00 | 0.00 | 50 | 1013.1 |
| 20260504174057 | 25 | 251 | 4.8 | 4.8 | 0.00 | 0.00 | 0.00 | 50 | 1013.1 |
| 20260504173554 | 25 | 176 | 3.2 | 8.0 | 0.00 | 0.00 | 0.00 | 51 | 1013.0 |
| 20260504173052 | 25 | 189 | 11.3 | 20.9 | 0.00 | 0.00 | 0.00 | 50 | 1013.1 |
| 20260504172547 | 25 | 209 | 11.3 | 12.9 | 0.00 | 0.00 | 0.00 | 49 | 1013.1 |
| 20260504172044 | 24 | 218 | 11.3 | 14.5 | 0.00 | 0.00 | 0.00 | 52 | 1012.9 |
| 20260504171541 | 25 | 148 | 11.3 | 12.9 | 0.00 | 0.00 | 0.00 | 50 | 1013.2 |
| 20260504171038 | 25 | 155 | 8.0 | 11.3 | 0.00 | 0.00 | 0.00 | 51 | 1013.5 |
| 20260504170534 | 24 | 179 | 4.8 | 8.0 | 0.00 | 0.00 | 0.00 | 52 | 1013.5 |
| 20260504150918 | 21 | 169 | 8.0 | 9.7 | 0.00 | 0.00 | 0.00 | 64 | 1014.7 |
| 20260504150414 | 21 | 203 | 11.3 | 14.5 | 0.00 | 0.00 | 0.00 | 65 | 1014.7 |
| 20260504140841 | 20 | 180 | 11.3 | 14.5 | 0.00 | 0.00 | 0.00 | 70 | 1015.3 |
| 20260504140337 | 19 | 189 | 8.0 | 9.7 | 0.00 | 0.00 | 0.00 | 70 | 1015.1 |
| 20260504130806 | 18 | 159 | 12.9 | 17.7 | 0.00 | 0.00 | 0.00 | 74 | 1015.3 |
| 20260504130302 | 17 | 181 | 6.4 | 9.7 | 0.00 | 0.00 | 0.00 | 74 | 1015.2 |
| 20260504120225 | 17 | 191 | 3.2 | 3.2 | 0.00 | 0.00 | 0.00 | 76 | 1015.0 |
| 20260504110653 | 17 | 180 | 1.6 | 3.2 | 0.00 | 0.00 | 0.00 | 71 | 1014.8 |
| 20260504110149 | 17 | 196 | 3.2 | 3.2 | 0.00 | 0.00 | 0.00 | 72 | 1014.5 |
| 20260504100609 | 17 | 182 | 3.2 | 3.2 | 0.00 | 0.00 | 0.00 | 73 | 1015.1 |
| 20260504100108 | 17 | 196 | 1.6 | 1.6 | 0.00 | 0.00 | 0.00 | 73 | 1015.0 |
| 20260504082003 | 17 | 184 | 3.2 | 4.8 | 0.00 | 0.00 | 0.00 | 67 | 1015.4 |
| 20260504081500 | 18 | 159 | 9.7 | 16.1 | 0.00 | 0.00 | 0.00 | 66 | 1015.6 |
| 20260504080955 | 18 | 152 | 9.7 | 12.9 | 0.00 | 0.00 | 0.00 | 64 | 1015.6 |
| 20260504080452 | 18 | 189 | 8.0 | 12.9 | 0.00 | 0.00 | 0.00 | 64 | 1015.5 |
| 20260504050305 | 20 | 163 | 4.8 | 4.8 | 0.00 | 0.00 | 0.00 | 56 | 1017.4 |
| 20260504045757 | 20 | 184 | 4.8 | 4.8 | 0.00 | 0.00 | 0.00 | 56 | 1017.2 |
| 20260504045256 | 20 | 166 | 6.4 | 8.0 | 0.00 | 0.00 | 0.00 | 56 | 1017.4 |
| 20260504044754 | 20 | 204 | 3.2 | 3.2 | 0.00 | 0.00 | 0.00 | 56 | 1017.6 |
| 20260504044252 | 20 | 178 | 3.2 | 4.8 | 0.00 | 0.00 | 0.00 | 55 | 1017.6 |
| 20260504043748 | 20 | 184 | 4.8 | 4.8 | 0.00 | 0.00 | 0.00 | 55 | 1017.4 |
| 20260504043245 | 20 | 183 | 4.8 | 4.8 | 0.00 | 0.00 | 0.00 | 55 | 1017.4 |
| 20260504042743 | 20 | 175 | 8.0 | 11.3 | 0.00 | 0.00 | 0.00 | 55 | 1017.5 |
| 20260504042239 | 20 | 178 | 4.8 | 4.8 | 0.00 | 0.00 | 0.00 | 55 | 1017.6 |
| 20260504041736 | 21 | 181 | 4.8 | 4.8 | 0.00 | 0.00 | 0.00 | 54 | 1017.7 |
| 20260504041232 | 21 | 179 | 4.8 | 4.8 | 0.00 | 0.00 | 0.00 | 54 | 1017.6 |
| 20260504040728 | 21 | 137 | 6.4 | 8.0 | 0.00 | 0.00 | 0.00 | 54 | 1017.5 |
| 20260504040226 | 21 | 168 | 6.4 | 8.0 | 0.00 | 0.00 | 0.00 | 53 | 1017.6 |
| 20260504035722 | 21 | 198 | 9.7 | 12.9 | 0.00 | 0.00 | 0.00 | 53 | 1017.3 |
| 20260504035219 | 21 | 173 | 3.2 | 3.2 | 0.00 | 0.00 | 0.00 | 53 | 1017.6 |
| 20260504034716 | 21 | 182 | 8.0 | 11.3 | 0.00 | 0.00 | 0.00 | 52 | 1017.7 |
| 20260504034214 | 21 | 170 | 9.7 | 14.5 | 0.00 | 0.00 | 0.00 | 52 | 1017.4 |
| 20260504033711 | 21 | 190 | 1.6 | 1.6 | 0.00 | 0.00 | 0.00 | 51 | 1017.4 |
| 20260504033208 | 21 | 172 | 11.3 | 12.9 | 0.00 | 0.00 | 0.00 | 50 | 1017.5 |
| 20260504032705 | 21 | 171 | 9.7 | 11.3 | 0.00 | 0.00 | 0.00 | 50 | 1017.4 |
| 20260504032202 | 21 | 191 | 1.6 | 1.6 | 0.00 | 0.00 | 0.00 | 51 | 1017.5 |
| 20260504031659 | 21 | 196 | 6.4 | 11.3 | 0.00 | 0.00 | 0.00 | 50 | 1017.2 |
| 20260504031155 | 21 | 194 | 4.8 | 11.3 | 0.00 | 0.00 | 0.00 | 50 | 1017.4 |
| 20260504030652 | 21 | 177 | 3.2 | 4.8 | 0.00 | 0.00 | 0.00 | 50 | 1017.3 |
| 20260504030149 | 21 | 194 | 4.8 | 4.8 | 0.00 | 0.00 | 0.00 | 50 | 1017.3 |
| 20260504025646 | 22 | 180 | 3.2 | 3.2 | 0.00 | 0.00 | 0.00 | 49 | 1017.2 |
| 20260504025142 | 22 | 182 | 4.8 | 4.8 | 0.00 | 0.00 | 0.00 | 49 | 1017.4 |
| 20260504024640 | 22 | 163 | 6.4 | 8.0 | 0.00 | 0.00 | 0.00 | 49 | 1017.3 |
| 20260504024136 | 22 | 179 | 4.8 | 4.8 | 0.00 | 0.00 | 0.00 | 48 | 1017.4 |
| 20260504023633 | 22 | 205 | 4.8 | 4.8 | 0.00 | 0.00 | 0.00 | 48 | 1017.4 |
| 20260504023129 | 22 | 179 | 3.2 | 3.2 | 0.00 | 0.00 | 0.00 | 48 | 1017.4 |
| 20260504022626 | 22 | 179 | 4.8 | 4.8 | 0.00 | 0.00 | 0.00 | 48 | 1017.6 |
| 20260504022121 | 22 | 167 | 4.8 | 9.7 | 0.00 | 0.00 | 0.00 | 47 | 1017.6 |
| 20260504021620 | 22 | 195 | 3.2 | 4.8 | 0.00 | 0.00 | 0.00 | 47 | 1017.4 |
| 20260504021116 | 22 | 185 | 3.2 | 3.2 | 0.00 | 0.00 | 0.00 | 47 | 1017.3 |
| 20260504020613 | 22 | 162 | 4.8 | 4.8 | 0.00 | 0.00 | 0.00 | 46 | 1017.2 |
| 20260504020109 | 22 | 194 | 6.4 | 9.7 | 0.00 | 0.00 | 0.00 | 45 | 1017.1 |
| 20260504015606 | 23 | 148 | 3.2 | 4.8 | 0.00 | 0.00 | 0.00 | 45 | 1017.2 |
| 20260504015102 | 23 | 189 | 3.2 | 4.8 | 0.00 | 0.00 | 0.00 | 45 | 1017.0 |
| 20260504014558 | 23 | 160 | 3.2 | 4.8 | 0.00 | 0.00 | 0.00 | 45 | 1017.3 |
| 20260504014055 | 23 | 194 | 8.0 | 11.3 | 0.00 | 0.00 | 0.00 | 45 | 1017.0 |
| 20260504013553 | 23 | 197 | 4.8 | 11.3 | 0.00 | 0.00 | 0.00 | 44 | 1017.2 |
| 20260504013050 | 23 | 176 | 6.4 | 9.7 | 0.00 | 0.00 | 0.00 | 44 | 1017.1 |
| 20260504012547 | 23 | 181 | 4.8 | 8.0 | 0.00 | 0.00 | 0.00 | 44 | 1017.0 |
| 20260504012045 | 23 | 177 | 8.0 | 9.7 | 0.00 | 0.00 | 0.00 | 43 | 1017.1 |
| 20260504011541 | 23 | 185 | 9.7 | 12.9 | 0.00 | 0.00 | 0.00 | 43 | 1017.1 |
| 20260504011037 | 23 | 205 | 4.8 | 9.7 | 0.00 | 0.00 | 0.00 | 42 | 1017.0 |
| 20260504010533 | 24 | 180 | 4.8 | 4.8 | 0.00 | 0.00 | 0.00 | 42 | 1017.0 |
| 20260504010030 | 24 | 201 | 9.7 | 11.3 | 0.00 | 0.00 | 0.00 | 41 | 1016.9 |
| 20260504005526 | 24 | 181 | 9.7 | 12.9 | 0.00 | 0.00 | 0.00 | 40 | 1016.9 |
| 20260504005024 | 24 | 176 | 6.4 | 8.0 | 0.00 | 0.00 | 0.00 | 40 | 1017.0 |
| 20260504004522 | 24 | 197 | 6.4 | 9.7 | 0.00 | 0.00 | 0.00 | 40 | 1017.0 |
| 20260504004019 | 25 | 179 | 3.2 | 4.8 | 0.00 | 0.00 | 0.00 | 40 | 1016.8 |
| 20260504003515 | 25 | 143 | 8.0 | 11.3 | 0.00 | 0.00 | 0.00 | 40 | 1016.9 |
| 20260504003012 | 25 | 174 | 4.8 | 8.0 | 0.00 | 0.00 | 0.00 | 39 | 1016.8 |
| 20260504002509 | 25 | 188 | 3.2 | 3.2 | 0.00 | 0.00 | 0.00 | 39 | 1017.0 |
| 20260504002006 | 25 | 167 | 3.2 | 3.2 | 0.00 | 0.00 | 0.00 | 39 | 1016.8 |
| 20260504001503 | 25 | 144 | 6.4 | 8.0 | 0.00 | 0.00 | 0.00 | 39 | 1017.0 |
| 20260504000959 | 25 | 174 | 4.8 | 8.0 | 0.00 | 0.00 | 0.00 | 39 | 1017.2 |
| 20260504000457 | 25 | 163 | 9.7 | 12.9 | 0.00 | 0.00 | 0.00 | 39 | 1017.0 |